When you browse on this site, cookies collect data to enhance your experience and personalize the content and advertising you see.
Visit our Privacy Policy to learn more. By continuing to use the site, you agree to this use of cookies and data.
  • Em Portugal
  • Lista de países
  • Para 7 dias
  • Temperatura da água
  • Mapa do tempo
  • Widgets de tempo
  • user-avatar
    Iniciar Sessão

    Previsão horária em Arkadia

    Hoje, 27 Maio, Quarta-feira

    Tempo Temperatura Precipitação Vento Pressão Humidade
    00:00 +7°C° 0.1 mm 1 m/s 664 mmHg 90%
    01:00 +6°C° 0 mm 1 m/s 664 mmHg 90%
    02:00 +6°C° 0 mm 1 m/s 663 mmHg 90%
    03:00 +6°C° 0 mm 1 m/s 663 mmHg 90%
    04:00 +6°C° 0 mm 1 m/s 663 mmHg 90%
    05:00 +7°C° 0 mm 1 m/s 664 mmHg 83%
    06:00 +9°C° 0 mm 1 m/s 665 mmHg 76%
    07:00 +11°C° 0 mm 1 m/s 665 mmHg 68%
    08:00 +12°C° 0.4 mm 1 m/s 666 mmHg 66%
    09:00 +12°C° 0.4 mm 2 m/s 666 mmHg 64%
    10:00 +13°C° 0.4 mm 2 m/s 667 mmHg 62%
    11:00 +12°C° 1 mm 3 m/s 667 mmHg 64%
    12:00 +11°C° 1 mm 3 m/s 667 mmHg 66%
    13:00 +11°C° 1 mm 3 m/s 666 mmHg 67%
    14:00 +12°C° 0.4 mm 2 m/s 666 mmHg 66%
    15:00 +12°C° 0.4 mm 2 m/s 666 mmHg 65%
    16:00 +12°C° 0.4 mm 2 m/s 666 mmHg 63%
    17:00 +11°C° 0.3 mm 1 m/s 666 mmHg 70%
    18:00 +10°C° 0.3 mm 1 m/s 666 mmHg 76%
    19:00 +8°C° 0.3 mm 1 m/s 665 mmHg 82%
    20:00 +8°C° 0.1 mm 1 m/s 666 mmHg 83%
    21:00 +7°C° 0.1 mm 1 m/s 666 mmHg 84%
    22:00 +7°C° 0.1 mm 1 m/s 666 mmHg 84%
    23:00 +7°C° 0 mm 1 m/s 666 mmHg 84%

    Amanhã, 28 Maio, Quinta-feira

    Tempo Temperatura Precipitação Vento Pressão Humidade
    00:00 +7°C° 0 mm 1 m/s 665 mmHg 83%
    01:00 +6°C° 0 mm 1 m/s 665 mmHg 82%
    02:00 +6°C° 0 mm 1 m/s 665 mmHg 81%
    03:00 +6°C° 0 mm 1 m/s 665 mmHg 79%
    04:00 +6°C° 0 mm 1 m/s 665 mmHg 78%
    05:00 +8°C° 0 mm 1 m/s 665 mmHg 72%
    06:00 +9°C° 0 mm 0 m/s 666 mmHg 66%
    07:00 +11°C° 0 mm 0 m/s 667 mmHg 60%
    08:00 +13°C° 0.1 mm 1 m/s 667 mmHg 56%
    09:00 +14°C° 0.1 mm 1 m/s 668 mmHg 52%
    10:00 +15°C° 0.1 mm 2 m/s 668 mmHg 48%
    11:00 +15°C° 1.2 mm 2 m/s 668 mmHg 51%
    12:00 +14°C° 1.2 mm 3 m/s 667 mmHg 55%
    13:00 +14°C° 1.2 mm 3 m/s 667 mmHg 58%
    14:00 +14°C° 0.7 mm 3 m/s 667 mmHg 60%
    15:00 +13°C° 0.7 mm 3 m/s 666 mmHg 62%
    16:00 +13°C° 0.7 mm 3 m/s 666 mmHg 64%
    17:00 +12°C° 0.1 mm 2 m/s 666 mmHg 71%
    18:00 +10°C° 0.1 mm 2 m/s 665 mmHg 79%
    19:00 +9°C° 0.1 mm 1 m/s 664 mmHg 86%
    20:00 +9°C° 0 mm 1 m/s 664 mmHg 88%
    21:00 +8°C° 0 mm 1 m/s 664 mmHg 89%
    22:00 +8°C° 0 mm 1 m/s 664 mmHg 91%
    23:00 +8°C° 0 mm 1 m/s 664 mmHg 91%

    Depois de amanhã, 29 Maio, Sexta-feira

    Tempo Temperatura Precipitação Vento Pressão Humidade
    00:00 +7°C° 0 mm 1 m/s 664 mmHg 92%
    01:00 +7°C° 0 mm 1 m/s 663 mmHg 92%
    02:00 +7°C° 0 mm 1 m/s 663 mmHg 92%
    03:00 +7°C° 0 mm 1 m/s 663 mmHg 92%
    04:00 +7°C° 0 mm 1 m/s 663 mmHg 92%
    05:00 +8°C° 0 mm 1 m/s 664 mmHg 85%
    06:00 +10°C° 0 mm 1 m/s 665 mmHg 78%
    07:00 +12°C° 0 mm 1 m/s 665 mmHg 71%
    08:00 +14°C° 0 mm 1 m/s 666 mmHg 62%
    09:00 +15°C° 0 mm 2 m/s 667 mmHg 53%
    10:00 +17°C° 0 mm 2 m/s 667 mmHg 45%
    11:00 +17°C° 0 mm 3 m/s 667 mmHg 45%
    12:00 +17°C° 0 mm 4 m/s 667 mmHg 46%
    13:00 +17°C° 0 mm 4 m/s 667 mmHg 47%
    14:00 +17°C° 0.1 mm 4 m/s 666 mmHg 50%
    15:00 +15°C° 0.1 mm 4 m/s 666 mmHg 53%
    16:00 +14°C° 0.1 mm 4 m/s 666 mmHg 56%
    17:00 +12°C° 0 mm 3 m/s 665 mmHg 64%
    18:00 +12°C° 0 mm 2 m/s 665 mmHg 73%
    19:00 +9°C° 0 mm 2 m/s 664 mmHg 82%
    20:00 +9°C° 0 mm 1 m/s 664 mmHg 84%
    21:00 +9°C° 0 mm 1 m/s 664 mmHg 87%
    22:00 +8°C° 0 mm 1 m/s 664 mmHg 90%
    23:00 +8°C° 0 mm 1 m/s 664 mmHg 90%

    30 Maio, Sábado

    Tempo Temperatura Precipitação Vento Pressão Humidade
    00:00 +7°C° 0 mm 1 m/s 664 mmHg 91%
    01:00 +7°C° 0 mm 1 m/s 663 mmHg 92%
    02:00 +7°C° 0 mm 1 m/s 663 mmHg 91%
    03:00 +7°C° 0 mm 1 m/s 663 mmHg 91%
    04:00 +7°C° 0 mm 1 m/s 663 mmHg 91%
    05:00 +8°C° 0 mm 1 m/s 664 mmHg 83%
    06:00 +10°C° 0 mm 1 m/s 664 mmHg 74%
    07:00 +12°C° 0 mm 1 m/s 665 mmHg 66%
    08:00 +14°C° 0 mm 1 m/s 666 mmHg 58%
    09:00 +16°C° 0 mm 2 m/s 666 mmHg 50%
    10:00 +18°C° 0 mm 2 m/s 667 mmHg 43%
    11:00 +18°C° 0 mm 3 m/s 667 mmHg 44%
    12:00 +18°C° 0 mm 3 m/s 667 mmHg 46%
    13:00 +18°C° 0 mm 4 m/s 667 mmHg 48%
    14:00 +18°C° 0 mm 4 m/s 666 mmHg 50%
    15:00 +17°C° 0 mm 4 m/s 666 mmHg 53%
    16:00 +16°C° 0 mm 3 m/s 665 mmHg 56%
    17:00 +14°C° 0 mm 3 m/s 665 mmHg 65%
    18:00 +13°C° 0 mm 2 m/s 664 mmHg 73%
    19:00 +11°C° 0 mm 1 m/s 664 mmHg 82%
    20:00 +10°C° 0 mm 1 m/s 664 mmHg 85%
    21:00 +10°C° 0 mm 1 m/s 664 mmHg 87%
    22:00 +9°C° 0 mm 1 m/s 664 mmHg 90%
    23:00 +9°C° 0 mm 1 m/s 664 mmHg 89%

    31 Maio, Domingo

    Tempo Temperatura Precipitação Vento Pressão Humidade
    00:00 +9°C° 0 mm 1 m/s 663 mmHg 87%
    01:00 +9°C° 0 mm 1 m/s 663 mmHg 86%
    02:00 +9°C° 0 mm 1 m/s 663 mmHg 85%
    03:00 +9°C° 0 mm 1 m/s 663 mmHg 83%
    04:00 +9°C° 0 mm 1 m/s 663 mmHg 81%
    05:00 +10°C° 0 mm 1 m/s 663 mmHg 77%
    06:00 +11°C° 0 mm 1 m/s 664 mmHg 73%
    07:00 +13°C° 0 mm 1 m/s 664 mmHg 68%
    08:00 +14°C° 0.1 mm 1 m/s 665 mmHg 63%
    09:00 +15°C° 0.1 mm 2 m/s 665 mmHg 58%
    10:00 +16°C° 0.1 mm 2 m/s 665 mmHg 53%
    11:00 +15°C° 0.2 mm 2 m/s 665 mmHg 61%
    12:00 +14°C° 0.2 mm 2 m/s 664 mmHg 68%
    13:00 +13°C° 0.2 mm 2 m/s 664 mmHg 75%
    14:00 +14°C° 0.1 mm 2 m/s 664 mmHg 70%
    15:00 +15°C° 0.1 mm 2 m/s 664 mmHg 65%
    16:00 +15°C° 0.1 mm 2 m/s 664 mmHg 59%
    17:00 +14°C° 0 mm 1 m/s 664 mmHg 67%
    18:00 +12°C° 0 mm 1 m/s 663 mmHg 76%
    19:00 +11°C° 0 mm 1 m/s 663 mmHg 84%
    20:00 +10°C° 0 mm 1 m/s 663 mmHg 86%
    21:00 +10°C° 0 mm 1 m/s 663 mmHg 88%
    22:00 +9°C° 0 mm 1 m/s 662 mmHg 91%
    23:00 +9°C° 0 mm 1 m/s 662 mmHg 91%

    1 Junho, Segunda-feira

    Tempo Temperatura Precipitação Vento Pressão Humidade
    00:00 +8°C° 0 mm 1 m/s 662 mmHg 91%
    01:00 +8°C° 0 mm 1 m/s 662 mmHg 90%
    02:00 +8°C° 0 mm 1 m/s 662 mmHg 89%
    03:00 +8°C° 0 mm 1 m/s 661 mmHg 88%
    04:00 +8°C° 0 mm 1 m/s 661 mmHg 87%
    05:00 +9°C° 0 mm 0 m/s 662 mmHg 79%
    06:00 +11°C° 0 mm 0 m/s 663 mmHg 70%
    07:00 +13°C° 0 mm 0 m/s 663 mmHg 61%
    08:00 +16°C° 0 mm 1 m/s 664 mmHg 55%
    09:00 +18°C° 0 mm 1 m/s 664 mmHg 48%
    10:00 +20°C° 0 mm 1 m/s 665 mmHg 42%
    11:00 +19°C° 0.1 mm 2 m/s 665 mmHg 43%
    12:00 +19°C° 0.1 mm 3 m/s 664 mmHg 44%
    13:00 +19°C° 0.1 mm 3 m/s 664 mmHg 46%
    14:00 +18°C° 0.5 mm 3 m/s 664 mmHg 51%
    15:00 +17°C° 0.5 mm 3 m/s 664 mmHg 56%
    16:00 +17°C° 0.5 mm 2 m/s 663 mmHg 62%
    17:00 +15°C° 0.3 mm 2 m/s 663 mmHg 70%
    18:00 +13°C° 0.3 mm 1 m/s 662 mmHg 77%
    19:00 +12°C° 0.3 mm 1 m/s 662 mmHg 85%
    20:00 +11°C° 0 mm 1 m/s 662 mmHg 87%
    21:00 +9°C° 0 mm 0 m/s 662 mmHg 89%
    22:00 +9°C° 0 mm 0 m/s 662 mmHg 90%
    23:00 +9°C° 0 mm 0 m/s 662 mmHg 90%
    Mostrar mais